Liberia, Costa Rica

7:24 AM CST on May 27, 2017 (GMT -0600)
Daniel Oduber Quiros International

Weather History for MRLB - June, 2013

Change the Weather History Date:

Monday, June 10, 2013

  Actual Average Record
Temperature  
Mean Temperature 82 °F -  
Max Temperature 92 °F 86 °F 93 °F (1997)
Min Temperature 73 °F 75 °F 69 °F (2016)
Cooling Degree Days 18    
Growing Degree Days 32 (Base 50)    
Moisture  
Dew Point 72 °F    
Average Humidity 70    
Maximum Humidity 94    
Minimum Humidity 49    
Precipitation  
Precipitation 0.00 in - - ()
Sea Level Pressure  
Sea Level Pressure 29.83 in    
Wind  
Wind Speed 4 mph ()    
Max Wind Speed 9 mph    
Max Gust Speed -    
Visibility 7.4 miles    
Events      
Averages and records for this station are not official NWS values.
T = Trace of Precipitation, MM = Missing Value Source: Averaged Metar Reports

Daily Weather History Graph

Daily Weather History Graph

Search for Another Location

Airport or City:

Trip Planner

Search our weather history database for the weather conditions in past years. The results will help you decide how hot, cold, wet, or windy it might be!

Date:

Astronomy

Jun. 10, 2013 Rise Set
Actual Time 5:19 AM CST 6:03 PM CST
Civil Twilight 4:56 AM CST 6:26 PM CST
Nautical Twilight 4:29 AM CST 6:53 PM CST
Astronomical Twilight 4:02 AM CST 7:21 PM CST
Moon 6:54 AM CST (6/10) 7:46 PM CST (6/10)
Length of Visible Light 13h 30m
Length of Day
12h 44m
Waxing Crescent, 4% of the Moon is Illuminated
Jun 10
Waxing Crescent
Jun 16
First Quarter
Jun 23
Full
Jun 29
Last Quarter
Jul 8
New

Hourly Weather History & Observations

Time (CST) Temp. Heat Index Dew Point Humidity Pressure Visibility Wind Dir Wind Speed Gust Speed Precip Events Conditions
6:00 AM 74 °F - 71 °F 88% 29.82 in 12 mi SSE 3.5 mph - -   Overcast
6:00 AM 73.4 °F - 71.6 °F 94% 29.80 in 6.2 mi SSE 3.5 mph - N/A   Mostly Cloudy
7:00 AM 78.8 °F - 73.4 °F 83% 29.86 in 6.2 mi WSW 3.5 mph - N/A   Mostly Cloudy
8:00 AM 78.8 °F - 73.4 °F 83% 29.86 in 6.2 mi WSW 3.5 mph - N/A   Mostly Cloudy
9:00 AM 82 °F - 73 °F 69% 29.89 in 12 mi Calm Calm - -   Overcast
9:00 AM 82.4 °F 88.2 °F 73.4 °F 74% 29.87 in 6.2 mi Calm Calm - N/A   Mostly Cloudy
10:00 AM 82.4 °F 89.5 °F 75.2 °F 79% 29.86 in 6.2 mi WSW 3.5 mph - N/A   Mostly Cloudy
11:00 AM 86.0 °F 93.4 °F 73.4 °F 66% 29.85 in 6.2 mi SE 3.5 mph - N/A   Mostly Cloudy
12:00 PM 86.0 °F 90.4 °F 69.8 °F 58% 29.85 in 6.2 mi SSE 6.9 mph - N/A   Mostly Cloudy
1:00 PM 87.8 °F 91.4 °F 68.0 °F 52% 29.82 in 6.2 mi ESE 6.9 mph - N/A   Mostly Cloudy
2:00 PM 91.4 °F 96.8 °F 69.8 °F 49% 29.80 in 6.2 mi ESE 6.9 mph - N/A   Mostly Cloudy
3:00 PM 87 °F - 73 °F 55% 29.79 in 12 mi WNW 9.2 mph - -   Overcast
3:00 PM 86.0 °F 93.4 °F 73.4 °F 66% 29.78 in 6.2 mi WNW 9.2 mph - N/A   Mostly Cloudy
4:00 PM 84.2 °F 92.3 °F 75.2 °F 74% 29.78 in 6.2 mi West 5.8 mph - N/A   Mostly Cloudy
5:00 PM 86.0 °F 91.8 °F 71.6 °F 62% 29.79 in 6.2 mi East 5.8 mph - N/A   Overcast
6:00 PM 83 °F - 70 °F 57% 29.84 in 12 mi SE 6.9 mph - -   Overcast
6:00 PM 82.4 °F 86.3 °F 69.8 °F 66% 29.82 in 6.2 mi SE 6.9 mph - N/A   Overcast
7:00 PM 78.8 °F - 71.6 °F 78% 29.85 in 6.2 mi SE 4.6 mph - N/A   Overcast
8:00 PM 78.8 °F - 71.6 °F 78% 29.86 in 6.2 mi SSE 3.5 mph - N/A   Overcast